Tracking 20945 objects as of 8-Jul-2020
HD Live streaming from Space Station
objects crossing your sky now

GORIZONT 13

Track GORIZONT 13 now!
GORIZONT 13 is classified as:


NORAD ID: 17083
Int'l Code: 1986-090A
Perigee: 36,747.9 km
Apogee: 36,887.8 km
Inclination: 15.1 °
Period: 1,488.7 minutes
Semi major axis: 43188 km
RCS: 2.5139 m2 (large)
Launch date: November 18, 1986
Source: Commonwealth of Independent States (former USSR) (CIS)
Launch site: TYURATAM MISSILE AND SPACE COMPLEX (TTMTR)
aabbcc
Your satellite tracking list
Your tracking list is empty




NASA's NSSDC Master Catalog

Two Line Element Set (TLE):
1 17083U 86090A   20189.57246444 -.00000132 +00000-0 +00000-0 0  9995
2 17083 015.0857 344.8508 0016192 328.3498 021.6072 00.96726478097648
Source of the keplerian elements: AFSPC